Regional Weather Roundup
Issued by NWS

Home | Current Version | Previous Version | Text Only | Print | Product List | Glossary On
Versions: 1 2 3 4 5 6 7 8 9 10 11 12 13 14 15 16 17 18 19 20 21 22 23 24 25 26 27 28 29 30 31 32 33 34 35 36 37 38 39 40 41 42 43 44 45 46 47 48 49 50
000
ASUS43 KFSD 310610
RWRSD

WEATHER ROUNDUP FOR SOUTH DAKOTA
NATIONAL WEATHER SERVICE SIOUX FALLS SD
100 AM CDT THU JUL 31 2014

NOTE: "FAIR" INDICATES FEW OR NO CLOUDS BELOW 12,000 FEET WITH NO
SIGNIFICANT WEATHER AND/OR OBSTRUCTIONS TO VISIBILITY.


SDZ001>005-009-010-012>017-310700-
NORTHWEST AND NORTH CENTRAL SOUTH DAKOTA

CITY           SKY/WX    TMP DP  RH WIND       PRES   REMARKS
BUFFALO          N/A     66  52  60 W5        30.11F
FAITH            N/A     66  55  67 NE5       30.14S
MOBRIDGE       PTCLDY    64  55  72 E7        30.08S
$$

SDZ012>016-024>037-041>051-057-063-072>074-310700-
SOUTHWEST AND SOUTH CENTRAL SOUTH DAKOTA

CITY           SKY/WX    TMP DP  RH WIND       PRES   REMARKS
RAPID CTY ARPT PTCLDY    63  50  62 NW10      30.18S
PIERRE         CLEAR     67  56  67 E10       30.07S
CUSTER         MOCLDY    56  43  61 N6        30.31F
ELLSWORTH AFB  PTCLDY    64  51  61 NW8       30.18S
PHILIP         CLEAR     63  52  67 CALM      30.09R
PINE RIDGE     MOCLDY    59  51  75 CALM      30.17S
WINNER         FAIR      69  55  60 SE13      30.08S
$$

SDZ004>011-016>023-039-040-310700-
NORTHEAST SOUTH DAKOTA

CITY           SKY/WX    TMP DP  RH WIND       PRES   REMARKS
ABERDEEN       CLOUDY    61  56  83 CALM      30.09S
WATERTOWN      CLEAR     59  54  83 CALM      30.11S
SISSETON         N/A     57  55  93 CALM      30.07S
$$

SDZ017-020-022-023-036>040-048>070-310700-
SOUTHEAST SOUTH DAKOTA

CITY           SKY/WX    TMP DP  RH WIND       PRES   REMARKS
SIOUX FALLS    CLEAR     60  55  83 CALM      30.10F
HURON          CLEAR     63  56  78 CALM      30.09R
CHAMBERLAIN    PTCLDY    65  55  70 SE7       30.09S
MITCHELL       CLEAR     69  56  62 S8        30.10S
YANKTON        CLEAR     63  55  77 CALM      30.11S
$$

ABBREVIATIONS USED IN REMARKS
   TC - TEMPERATURE IN CELSIUS
  WCI - WIND CHILL INDEX
   HX - HEAT INDEX
  VSB - VISIBILITY



USA.gov is the U.S. government's official web portal to all federal, state and local government web resources and services.